| time (UTC) | temp C | wind direction | speed KPH | gust KPH | rain 1hr cm | rain 24hr cm | rain mn cm | humidity % | barometer mb |
| 20260504034504 | 17 | 262 | 8.0 | 20.9 | 0.00 | 0.00 | 0.00 | 47 | 991.5 |
| 20260504033004 | 17 | 267 | 9.7 | 27.4 | 0.00 | 0.00 | 0.00 | 47 | 991.9 |
| 20260504031503 | 17 | 251 | 8.0 | 24.1 | 0.00 | 0.00 | 0.00 | 48 | 992.1 |
| 20260504030004 | 17 | 239 | 9.7 | 40.2 | 0.00 | 0.00 | 0.00 | 43 | 992.2 |
| 20260504024718 | 17 | 218 | 6.4 | 19.3 | 0.00 | 0.00 | 0.00 | 43 | 992.2 |
| 20260504023003 | 17 | 217 | 6.4 | 17.7 | 0.00 | 0.00 | 0.00 | 43 | 992.5 |
| 20260504021504 | 17 | 222 | 6.4 | 29.0 | 0.00 | 0.00 | 0.00 | 43 | 993.3 |
| 20260504020004 | 17 | 207 | 4.8 | 11.3 | 0.00 | 0.00 | 0.00 | 43 | 993.9 |
| 20260504014503 | 17 | 260 | 3.2 | 11.3 | 0.00 | 0.00 | 0.00 | 41 | 994.2 |
| 20260504013003 | 17 | 212 | 6.4 | 22.5 | 0.00 | 0.00 | 0.00 | 40 | 994.7 |
| 20260504011503 | 17 | 240 | 6.4 | 17.7 | 0.00 | 0.00 | 0.00 | 41 | 995.0 |
| 20260504010004 | 17 | 233 | 9.7 | 24.1 | 0.00 | 0.00 | 0.00 | 42 | 995.1 |
| 20260504004503 | 17 | 247 | 6.4 | 27.4 | 0.00 | 0.00 | 0.00 | 44 | 995.8 |
| 20260504003004 | 17 | 275 | 12.9 | 29.0 | 0.00 | 0.00 | 0.00 | 43 | 996.2 |
| 20260504001503 | 17 | 231 | 8.0 | 19.3 | 0.00 | 0.00 | 0.00 | 37 | 996.5 |
| 20260504000003 | 17 | 220 | 4.8 | 17.7 | 0.00 | 0.00 | 0.00 | 37 | 996.3 |
| 20260503234503 | 18 | 197 | 6.4 | 24.1 | 0.00 | 0.00 | 0.00 | 36 | 996.5 |
| 20260503233004 | 18 | 186 | 6.4 | 19.3 | 0.00 | 0.00 | 0.00 | 36 | 997.0 |
| 20260503231505 | 18 | 207 | 6.4 | 24.1 | 0.00 | 0.00 | 0.00 | 37 | 997.4 |
| 20260503230004 | 18 | 196 | 6.4 | 19.3 | 0.00 | 0.00 | 0.00 | 37 | 997.7 |
| 20260503224717 | 18 | 213 | 8.0 | 20.9 | 0.00 | 0.00 | 0.00 | 35 | 998.1 |
| 20260503223004 | 19 | 243 | 9.7 | 35.4 | 0.00 | 0.00 | 0.00 | 33 | 998.5 |
| 20260503221719 | 20 | 244 | 8.0 | 24.1 | 0.00 | 0.00 | 0.00 | 32 | 998.7 |
| 20260503220003 | 19 | 246 | 8.0 | 30.6 | 0.00 | 0.00 | 0.00 | 34 | 999.0 |
| 20260503214503 | 19 | 236 | 8.0 | 24.1 | 0.00 | 0.00 | 0.00 | 34 | 999.5 |
| 20260503213003 | 20 | 245 | 6.4 | 22.5 | 0.00 | 0.00 | 0.00 | 33 | 999.7 |
| 20260503211503 | 20 | 276 | 9.7 | 24.1 | 0.00 | 0.00 | 0.00 | 33 | 1000.1 |
| 20260503210004 | 18 | 272 | 9.7 | 25.7 | 0.00 | 0.00 | 0.00 | 35 | 1000.5 |
| 20260503204503 | 18 | 275 | 11.3 | 35.4 | 0.00 | 0.00 | 0.00 | 34 | 1000.9 |
| 20260503203217 | 19 | 287 | 14.5 | 32.2 | 0.00 | 0.00 | 0.00 | 34 | 1001.1 |
| 20260503201718 | 18 | 291 | 14.5 | 30.6 | 0.00 | 0.00 | 0.00 | 35 | 1001.5 |
| 20260503200003 | 18 | 287 | 14.5 | 33.8 | 0.00 | 0.00 | 0.00 | 34 | 1001.8 |
| 20260503194503 | 18 | 267 | 11.3 | 24.1 | 0.00 | 0.00 | 0.00 | 36 | 1002.1 |
| 20260503193004 | 17 | 278 | 9.7 | 22.5 | 0.00 | 0.00 | 0.00 | 37 | 1002.3 |
| 20260503191504 | 16 | 276 | 11.3 | 25.7 | 0.00 | 0.00 | 0.00 | 38 | 1002.8 |
| 20260503190005 | 16 | 288 | 11.3 | 29.0 | 0.00 | 0.00 | 0.00 | 38 | 1003.1 |
| 20260503184718 | 16 | 287 | 16.1 | 37.0 | 0.00 | 0.00 | 0.00 | 38 | 1003.3 |
| 20260503183003 | 15 | 290 | 16.1 | 32.2 | 0.00 | 0.00 | 0.00 | 37 | 1003.7 |
| 20260503181504 | 16 | 284 | 14.5 | 33.8 | 0.00 | 0.00 | 0.00 | 37 | 1003.8 |
| 20260503180005 | 16 | 293 | 11.3 | 27.4 | 0.00 | 0.00 | 0.00 | 37 | 1004.2 |
| 20260503174504 | 15 | 291 | 12.9 | 30.6 | 0.00 | 0.00 | 0.00 | 38 | 1004.5 |
| 20260503173003 | 15 | 286 | 14.5 | 25.7 | 0.00 | 0.00 | 0.00 | 39 | 1004.6 |
| 20260503171503 | 15 | 302 | 12.9 | 25.7 | 0.00 | 0.00 | 0.00 | 38 | 1004.7 |
| 20260503150217 | 11 | 299 | 11.3 | 29.0 | 0.00 | 0.00 | 0.00 | 43 | 1005.8 |
| 20260503140217 | 9 | 295 | 9.7 | 25.7 | 0.00 | 0.00 | 0.00 | 57 | 1006.2 |
| 20260503100217 | -1 | 291 | 1.6 | 9.7 | 0.00 | 0.00 | 0.00 | 90 | 1004.9 |
| 20260503071504 | 1 | 0 | 0.0 | 0.0 | 0.00 | 0.00 | 0.00 | 88 | 1005.6 |
| 20260503070218 | 1 | 0 | 0.0 | 0.0 | 0.00 | 0.00 | 0.00 | 88 | 1005.6 |
| 20260503060218 | 2 | 0 | 0.0 | 0.0 | 0.00 | 0.00 | 0.00 | 88 | 1005.8 |
| 20260503054503 | 3 | 0 | 0.0 | 0.0 | 0.00 | 0.00 | 0.00 | 87 | 1005.9 |
| 20260503053003 | 3 | 0 | 0.0 | 0.0 | 0.00 | 0.00 | 0.00 | 87 | 1006.0 |
| 20260503051504 | 3 | 0 | 0.0 | 0.0 | 0.00 | 0.00 | 0.00 | 87 | 1006.0 |
| 20260503050004 | 3 | 0 | 0.0 | 0.0 | 0.00 | 0.00 | 0.00 | 85 | 1006.0 |
| 20260503044504 | 4 | 0 | 0.0 | 0.0 | 0.00 | 0.00 | 0.00 | 85 | 1006.2 |
| 20260503043217 | 5 | 0 | 0.0 | 0.0 | 0.00 | 0.00 | 0.00 | 85 | 1006.2 |
| 20260503041504 | 5 | 0 | 0.0 | 0.0 | 0.00 | 0.00 | 0.00 | 83 | 1006.3 |
| 20260503040004 | 6 | 0 | 0.0 | 0.0 | 0.00 | 0.00 | 0.00 | 82 | 1006.4 |